Regional Weather Roundup
Issued by NWS

Home | Current Version | Previous Version | Text Only | Print | Product List | Glossary Off
Versions: 1 2 3 4 5 6 7 8 9 10 11 12 13 14 15 16 17 18 19 20 21 22 23 24 25 26 27 28 29 30 31 32 33 34 35 36 37 38 39 40 41 42 43 44 45 46 47 48 49 50

000
ASUS43 KLOT 251106
RWRIL

ILLINOIS REGIONAL WEATHER ROUNDUP
NATIONAL WEATHER SERVICE CHICAGO/ROMEOVILLE IL
600 AM CDT FRI JUL 25 2014

NOTE: "FAIR" INDICATES FEW OR NO CLOUDS BELOW 12,000 FEET WITH NO
SIGNIFICANT WEATHER AND/OR OBSTRUCTIONS TO VISIBILITY.

* THESE STATIONS ARE NOT UNDER NWS QUALITY CONTROL. THEY ALSO MAY NOT
  REPORT WEATHER SUCH AS PRECIPITATION OR FOG.

ILZ001-002-007-009-015-016-024-251200-
NORTHWEST ILLINOIS

CITY           SKY/WX    TMP DP  RH WIND       PRES   REMARKS
MOLINE         CLOUDY    63  55  75 CALM      30.07R
STERLING*      CLOUDY    59  54  82 NW3       30.10R
SAVANNA*       LGT RAIN  61  56  85 S8        30.07S
$$

ILZ003-004-008-010-011-017-018-251200-
NORTH CENTRAL ILLINOIS

CITY           SKY/WX    TMP DP  RH WIND       PRES   REMARKS
ROCKFORD       CLOUDY    59  50  72 SW5       30.09R
FREEPORT*      LGT RAIN  58  54  84 S7        30.10R
ROCHELLE*      LGT RAIN  56  53  90 W5        30.08R
DE KALB*       CLOUDY    54  50  85 S6        30.07R
PERU*          CLOUDY    60  53  76 SW5       30.09R
$$

ILZ005-006-012>014-019>023-251200-
NORTHEAST ILLINOIS

CITY           SKY/WX    TMP DP  RH WIND       PRES   REMARKS
CHICAGO-OHARE  MOCLDY    59  48  67 SW3       30.03F
CHICAGO-MIDWAY MOCLDY    62  51  67 S5        30.02F
AURORA         CLOUDY    53  49  86 NW5       30.07R
JOLIET*        MOCLDY    56  51  84 CALM      30.07R
WAUKEGAN       MOCLDY    59  46  62 SW7       30.03S
DUPAGE AIRPORT CLOUDY    55  52  89 W3        30.06R
KANKAKEE*      PTCLDY    56  52  88 SE3       30.06F
WHEELING       MOCLDY    59  51  75 SW3       30.05F
MORRIS*        CLOUDY    56  54  91 S3        30.06R
ROMEOVILLE*    CLOUDY    55  52  92 SW6       30.06R
$$

LMZ740>746-251200-
SOUTHERN LAKE MICHIGAN

STATION/POSITION SKY/WX   TEMP    WIND        PRES    VSBY  WAVE
                          AIR SEA DIR/SP/G                  HT/PER
                          (F)     (DEG/KT/KT) (MB)    (MI)  (FT/S)
SOUTHERN BUOY              62 61  200/  8/ 10 1017.1F         0
WAUKEGAN HARBOR            64     190/  9/ 12   N/A
HARRISON CRIB              63     180/ 11/ 12   N/A
CALUMET HARBOR             60     170/  6/  7 1015.4F
MICHIGAN CITY              57     130/ 10/ 14   N/A
MICHIGAN CITY 6N           61 68  160/ 12/ 14   N/A           1/ 2
ST. JOSEPH                 58 62  160/  6/ 10   N/A           1/ 2
$$

ILZ025>027-034>036-040-047-049-050-058-095>099-251200-
WEST-CENTRAL ILLINOIS

CITY           SKY/WX    TMP DP  RH WIND       PRES   REMARKS
QUINCY         CLOUDY    64  55  72 SE3       30.03R
GALESBURG*     CLOUDY    60  56  89 CALM      30.06S
MACOMB*        CLOUDY    58  57  98 N3        30.09R
JACKSONVILLE*  CLOUDY    62  57  83 SE7       30.03R
PITTSFIELD*    CLOUDY    61  56  84 SE3       30.02S
$$

ILZ028>032-037-038-041>044-048-051>054-059>061-251200-
CENTRAL ILLINOIS

CITY           SKY/WX    TMP DP  RH WIND       PRES   REMARKS
PONTIAC        CLOUDY    55  55 100 SE5       30.06R
DECATUR        MOCLDY    60  56  86 S3        30.06S
PEORIA         CLOUDY    64  54  69 CALM      30.06R
LACON*         CLOUDY    58  53  84 CALM      30.06R
LINCOLN*       CLOUDY    58  55  89 CALM      30.03R
SPRINGFIELD    CLOUDY    61  56  83 SE5       30.04S
TAYLORVILLE    MOCLDY    57  54  88 SE7       30.05R
$$

ILZ033-039-045-046-055>057-062-063-251200-
EAST-CENTRAL ILLINOIS

CITY           SKY/WX    TMP DP  RH WIND       PRES   REMARKS
CHAMPAIGN      PTCLDY    55  54  96 E6        30.07S
DANVILLE*      CLEAR     53  52  97 CALM      30.04S
RANTOUL*       PTCLDY    58  53  84 E3        30.08R
MATTOON          N/A     58  55  90 SE6       30.05F
PARIS*         CLEAR     51  50  97 CALM      30.08F FOG
$$

ILZ079-100>102-251200-
SOUTHWEST ILLINOIS

CITY           SKY/WX    TMP DP  RH WIND       PRES   REMARKS
ALTON          CLOUDY    57  57 100 E6        30.03F
BELLEVILLE     CLOUDY    58  58  99 SE3       30.04S
CAHOKIA*       CLOUDY    61  58  90 S5        30.03F
SPARTA*        MOCLDY    59  59 100 SE3       30.07R
$$

ILZ064>066-069>071-074>076-080>082-084>086-088>090-092>094-251200-
SOUTH-CENTRAL ILLINOIS

CITY           SKY/WX    TMP DP  RH WIND       PRES   REMARKS
CARBONDALE     PTCLDY    57  55  93 CALM      30.06R FOG
CAIRO*         CLEAR     59  57  92 CALM      30.06R
EFFINGHAM*     CLEAR     56  53  89 SE3       30.06F
MARION         PTCLDY    59  59 100 CALM      30.07R
MT. VERNON     PTCLDY    55  50  82 CALM      30.07S
CENTRALIA*     PTCLDY    55  53  93 SE3       30.05S
SALEM*         PTCLDY    62  59  89 SE3       30.06S
METROPOLIS*    CLEAR     55  54  97 CALM      30.05S FOG
$$

ILZ067-068-072-073-078-083-087-091-251200-
SOUTHEAST ILLINOIS

CITY           SKY/WX    TMP DP  RH WIND       PRES   REMARKS
LAWRENCEVILLE  CLEAR     56  55  97 CALM      30.08R FOG
FLORA*         CLEAR     53  52  98 CALM      30.06F
FAIRFIELD*     PTCLDY    57  55  94 CALM      30.06F
HARRISBURG*    FOG       56  56 100 CALM      30.07S VSB 1/4
ROBINSON*      FOG       53  53  99 CALM      30.09S VSB 1/4
CARMI*         CLEAR     57  57 100 CALM      30.06S FOG
$$

ABBREVIATIONS USED IN REMARKS
   TC - TEMPERATURE IN CELSIUS
  WCI - WIND CHILL INDEX
   HX - HEAT INDEX
  VSB - VISIBILITY
$$




USA.gov is the U.S. government's official web portal to all federal, state and local government web resources and services.